Location: Zagreb
(45.8000°N, 16.0000°E)
Time: 19:19:42
(UTC+02:00)

Altair - All Passes

Search period start: 09 August 2020 00:00
Search period end: 19 August 2020 00:00
Orbit: 1501 x 1682 km, 47.2° (Epoch: 09 August)

Date Brightness Start Highest point End Pass type
(mag) Time Alt. Az. Time Alt. Az. Time Alt. Az.
09 Aug - 01:27:41 10° SSE 01:32:40 15° SE 01:37:34 10° E visible
09 Aug - 03:26:35 10° SW 03:35:41 50° SE 03:44:30 10° ENE visible
09 Aug - 05:30:28 10° WSW 05:39:59 90° N 05:49:15 10° ENE daylight
09 Aug - 07:35:36 10° W 07:44:59 86° N 07:54:11 10° E daylight
09 Aug - 09:40:29 10° WNW 09:49:25 57° SSW 09:58:18 10° SE daylight
09 Aug - 11:46:39 10° W 11:52:32 19° SW 11:58:28 10° S daylight
10 Aug - 01:03:26 10° SSE 01:07:39 14° SE 01:11:48 10° E visible
10 Aug - 03:01:34 10° SSW 03:10:35 47° SE 03:19:19 10° ENE visible
10 Aug - 05:05:15 10° WSW 05:14:49 88° SSE 05:24:05 10° ENE visible
10 Aug - 07:10:23 10° W 07:19:48 85° N 07:29:01 10° E daylight
10 Aug - 09:15:17 10° WNW 09:24:19 60° SSW 09:33:15 10° SE daylight
10 Aug - 11:21:11 10° W 11:27:32 21° SW 11:33:54 10° S daylight
11 Aug - 00:39:30 10° SE 00:42:39 12° ESE 00:45:46 10° ESE visible
11 Aug - 02:36:33 10° SSW 02:45:29 44° SE 02:54:07 10° ENE visible
11 Aug - 04:40:03 10° WSW 04:49:39 86° SSE 04:58:55 10° ENE visible
11 Aug - 06:45:10 10° W 06:54:37 84° N 07:03:51 10° E daylight
11 Aug - 08:50:06 10° WNW 08:59:12 64° SSW 09:08:12 10° SE daylight
11 Aug - 10:55:47 10° W 11:02:31 23° SW 11:09:15 10° S daylight
12 Aug - 00:16:23 10° SE 00:17:40 10° ESE 00:18:55 10° ESE visible
12 Aug - 02:11:35 10° SSW 02:20:23 41° SE 02:28:55 10° ENE visible
12 Aug - 04:14:51 10° WSW 04:24:28 83° SSE 04:33:46 10° ENE visible
12 Aug - 06:19:56 10° W 06:29:25 83° N 06:38:40 10° E daylight
12 Aug - 08:24:55 10° WNW 08:34:05 67° SSW 08:43:07 10° SE daylight
12 Aug - 10:30:25 10° W 10:37:30 26° SW 10:44:34 10° S daylight
13 Aug - 01:46:38 10° SSW 01:55:18 38° SE 02:03:42 10° ENE visible
13 Aug - 03:49:39 10° WSW 03:59:17 81° SSE 04:08:37 10° ENE visible
13 Aug - 05:54:43 10° W 06:04:13 82° N 06:13:29 10° E daylight
13 Aug - 07:59:43 10° WNW 08:08:58 70° SSW 08:18:02 10° SE daylight
13 Aug - 10:05:06 10° W 10:12:28 28° SW 10:19:49 10° S daylight
14 Aug - 01:21:42 10° SSW 01:30:13 35° SE 01:38:28 10° ENE visible
14 Aug - 03:24:28 10° WSW 03:34:08 78° SSE 03:43:27 10° ENE visible
14 Aug - 05:29:29 10° W 05:39:01 82° N 05:48:18 10° E daylight
14 Aug - 07:34:31 10° WNW 07:43:49 74° SSW 07:52:56 10° ESE daylight
14 Aug - 09:39:47 10° WNW 09:47:26 30° SW 09:55:02 10° S daylight
15 Aug - 00:56:48 10° SSW 01:05:09 33° SE 01:13:14 10° ENE visible
15 Aug - 02:59:17 10° WSW 03:08:58 75° SSE 03:18:18 10° ENE visible
15 Aug - 05:04:14 10° W 05:13:50 82° N 05:23:07 10° E visible
15 Aug - 07:09:19 10° WNW 07:18:41 77° SSW 07:27:50 10° ESE daylight
15 Aug - 09:14:30 10° WNW 09:22:24 33° SW 09:30:13 10° SSE daylight
16 Aug - 00:31:58 10° S 00:40:05 30° SE 00:47:58 10° ENE visible
16 Aug - 02:34:07 10° SW 02:43:48 72° SSE 02:53:08 10° ENE visible
16 Aug - 04:39:00 10° W 04:48:38 82° N 04:57:56 10° E visible
16 Aug - 06:44:07 10° WNW 06:53:32 80° SSW 07:02:42 10° ESE daylight
16 Aug - 08:49:14 10° WNW 08:57:21 36° SW 09:05:22 10° SSE daylight
17 Aug - 00:07:09 10° S 00:15:01 28° SE 00:22:40 10° E visible
17 Aug - 02:08:58 10° SW 02:18:39 69° SSE 02:27:58 10° ENE visible
17 Aug - 04:13:46 10° W 04:23:26 83° N 04:32:46 10° E visible
17 Aug - 06:18:55 10° WNW 06:28:23 82° SSW 06:37:35 10° ESE daylight
17 Aug - 08:23:59 10° WNW 08:32:18 39° SW 08:40:30 10° SSE daylight
17 Aug - 23:42:22 10° S 23:49:57 26° SE 23:57:21 10° E visible
18 Aug - 01:43:50 10° SW 01:53:30 66° SSE 02:02:49 10° ENE visible
18 Aug - 03:48:31 10° W 03:58:14 83° N 04:07:35 10° E visible
18 Aug - 05:53:43 10° WNW 06:03:13 85° SSW 06:12:26 10° ESE daylight
18 Aug - 07:58:44 10° WNW 08:07:14 42° SW 08:15:36 10° SSE daylight
18 Aug - 10:08:46 10° WSW 10:09:49 10° WSW 10:10:52 10° SW daylight
18 Aug - 23:17:37 10° S 23:24:54 24° SE 23:31:59 10° E visible
